Tracking 29089 objects as of 12-Jul-2024
HD Live streaming from Space Station
objects crossing your sky now

COSMOS 1275 DEB

Track COSMOS 1275 DEB now!
10-day predictions


NORAD ID: 13802
Int'l Code: 1981-053GZ
Perigee: 932.4 km
Apogee: 1,023.0 km
Inclination: 82.8 °
Period: 104.5 minutes
Semi major axis: 7348 km
RCS: 0.052 m2 (small)
Launch date: June 4, 1981
Source: Commonwealth of Independent States (former USSR) (CIS)
Launch site: PLESETSK MISSILE AND SPACE COMPLEX (PKMTR)

Note: This is SATELLITE DEBRIS
Your satellite tracking list
Your tracking list is empty




NASA's NSSDC Master Catalog

Two Line Element Set (TLE):
1 13802U 81053GW  24193.23490046  .00000760  00000-0  73093-3 0  9996
2 13802  82.8010 258.5024 0061662  40.8624  22.7762 13.78126156128126
Source of the keplerian elements: AFSPC